User: anonymous   Login
Location: Unspecified
(0.0000°N, 0.0000°E)
Time: 14:35:23
(UTC+00:00)
Language:

GONETS M 11 (M21) - Orbit

View from above orbital plane
View from above orbital plane
View from above satellite
View from above satellite

Ground track
Ground track

The orbit data is extracted from the following two-line orbital elements,

1 40552U 15020A   18267.72648397 -.00000001 +00000-0 -81772-4 0  9996
2 40552 082.4904 349.5611 0016635 043.7105 112.3410 12.42879116158147
Epoch (UTC): 24 September 2018 17:26:08
Eccentricity: 0.0016635
inclination: 82.4904°
perigee height: 1481 km
apogee height: 1507 km
right ascension of ascending node: 349.5611°
argument of perigee: 43.7105°
revolutions per day: 12.42879116
mean anomaly at epoch: 112.3410°
orbit number at epoch: 15814

The dashed part of the orbit path shows where the satellite is in the earth's shadow,  

DLR